Dubois Muni, Dubois, WY, WY

7:27 AM MDT on April 30, 2017 (GMT -0600)
Dubois Muni, Dubois, WY

Weather History for KDUB - January, 2014

Change the Weather History Date:

Tuesday, January 28, 2014

  Actual Average (KJAC) Record (KJAC)
Temperature  
Mean Temperature 19 °F -  
Max Temperature 32 °F 26 °F 50 °F (2008)
Min Temperature 6 °F 0 °F -33 °F (1980)
Degree Days  
Heating Degree Days 46    
Moisture  
Dew Point -9 °F    
Average Humidity 29    
Maximum Humidity 63    
Minimum Humidity 17    
Precipitation  
Precipitation 0.00 in - - ()
Sea Level Pressure  
Sea Level Pressure 30.04 in    
Wind  
Wind Speed 17 mph (NW)    
Max Wind Speed 26 mph    
Max Gust Speed 36 mph    
Visibility 10 miles    
Events      
Averages and records for this station are not official NWS values.
T = Trace of Precipitation, MM = Missing Value Source: NWS Daily Summary

Daily Weather History Graph

Daily Weather History Graph

Search for Another Location

Airport or City:

Trip Planner

Search our weather history database for the weather conditions in past years. The results will help you decide how hot, cold, wet, or windy it might be!

Date:

Astronomy

Jan. 28, 2014 Rise Set
Actual Time 7:39 AM MST 5:24 PM MST
Civil Twilight 7:08 AM MST 5:55 PM MST
Nautical Twilight 6:33 AM MST 6:30 PM MST
Astronomical Twilight 6:00 AM MST 7:03 PM MST
Moon 5:25 AM MST (1/28) 3:17 PM MST (1/28)
Length of Visible Light 10h 47m
Length of Day
9h 45m
Waning Crescent, 7% of the Moon is Illuminated
Jan 28
Waning Crescent
Jan 30
New
Feb 6
First Quarter
Feb 14
Full
Feb 22
Last Quarter

Hourly Weather History & Observations

Time (MST) Temp. Windchill Dew Point Humidity Pressure Visibility Wind Dir Wind Speed Gust Speed Precip Events Conditions
12:15 AM 10.4 °F -8.2 °F -11.2 °F 37% 30.09 in 10.0 mi West 19.6 mph 26.5 mph N/A   Clear
12:35 AM 10.4 °F -7.2 °F -11.2 °F 37% 30.09 in 10.0 mi West 17.3 mph - N/A   Clear
12:55 AM 10.4 °F -4.8 °F -11.2 °F 37% 30.10 in 10.0 mi WNW 12.7 mph 23.0 mph N/A   Clear
1:15 AM 6.8 °F -7.8 °F -9.4 °F 48% 30.10 in 10.0 mi NW 10.4 mph - N/A   Clear
1:35 AM 8.6 °F -7.0 °F -9.4 °F 44% 30.09 in 10.0 mi West 12.7 mph - N/A   Clear
1:55 AM 8.6 °F -7.0 °F -13.0 °F 37% 30.09 in 10.0 mi NW 12.7 mph - N/A   Clear
2:15 AM 6.8 °F -5.9 °F -13.0 °F 40% 30.09 in 10.0 mi NNW 8.1 mph - N/A   Clear
2:35 AM 8.6 °F -3.7 °F -11.2 °F 40% 30.09 in 10.0 mi NW 8.1 mph 19.6 mph N/A   Clear
2:55 AM 10.4 °F -9.1 °F -13.0 °F 34% 30.08 in 10.0 mi WNW 21.9 mph 31.1 mph N/A   Clear
3:15 AM 12.2 °F -7.9 °F -13.0 °F 32% 30.06 in 10.0 mi West 25.3 mph 34.5 mph N/A   Clear
3:35 AM 12.2 °F -8.2 °F -13.0 °F 32% 30.06 in 10.0 mi West 26.5 mph 35.7 mph N/A   Clear
3:55 AM 12.2 °F -7.5 °F -14.8 °F 29% 30.06 in 10.0 mi West 24.2 mph 32.2 mph N/A   Clear
4:15 AM 12.2 °F -7.9 °F -14.8 °F 29% 30.06 in 10.0 mi West 25.3 mph 29.9 mph N/A   Clear
4:30 AM 10.4 °F -6.6 °F -14.8 °F 31% 30.07 in 10.0 mi NW 16.1 mph - N/A   Clear
4:55 AM 12.2 °F -6.3 °F -14.8 °F 29% 30.06 in 10.0 mi West 20.7 mph 25.3 mph N/A   Clear
5:15 AM 12.2 °F -5.8 °F -14.8 °F 29% 30.06 in 10.0 mi WNW 19.6 mph 28.8 mph N/A   Clear
5:30 AM 12.2 °F -6.3 °F -14.8 °F 29% 30.06 in 10.0 mi West 20.7 mph 26.5 mph N/A   Clear
5:55 AM 12.2 °F -6.3 °F -16.6 °F 27% 30.06 in 10.0 mi West 20.7 mph - N/A   Clear
6:10 AM 14.0 °F -4.3 °F -16.6 °F 25% 30.05 in 10.0 mi WNW 21.9 mph - N/A   Clear
6:35 AM 14.0 °F -4.3 °F -16.6 °F 25% 30.05 in 10.0 mi West 21.9 mph - N/A   Clear
6:55 AM 14.0 °F -3.4 °F -16.6 °F 25% 30.06 in 10.0 mi West 19.6 mph 27.6 mph N/A   Clear
7:15 AM 10.4 °F -6.0 °F -14.8 °F 31% 30.06 in 10.0 mi NW 15.0 mph - N/A   Clear
7:35 AM 10.4 °F -6.0 °F -14.8 °F 31% 30.06 in 10.0 mi NNW 15.0 mph - N/A   Clear
7:55 AM 12.2 °F -0.2 °F -16.6 °F 27% 30.07 in 10.0 mi NW 9.2 mph - N/A   Clear
8:15 AM 17.6 °F 0.5 °F -18.4 °F 19% 30.06 in 10.0 mi WNW 21.9 mph 28.8 mph N/A   Clear
8:35 AM 17.6 °F 0.1 °F -18.4 °F 19% 30.08 in 10.0 mi WNW 23.0 mph 35.7 mph N/A   Clear
8:55 AM 17.6 °F 0.1 °F -16.6 °F 21% 30.08 in 10.0 mi WNW 23.0 mph 29.9 mph N/A   Clear
9:15 AM 17.6 °F 1.7 °F -13.0 °F 25% 30.08 in 10.0 mi NW 18.4 mph 26.5 mph N/A   Clear
9:35 AM 17.6 °F 2.2 °F -11.2 °F 27% 30.08 in 10.0 mi NNW 17.3 mph - N/A   Clear
9:55 AM 19.4 °F 2.5 °F -11.2 °F 25% 30.08 in 10.0 mi NW 23.0 mph 26.5 mph N/A   Clear
10:15 AM 21.2 °F 6.4 °F -9.4 °F 26% 30.08 in 10.0 mi NNW 18.4 mph 24.2 mph N/A   Clear
10:35 AM 21.2 °F 6.4 °F -9.4 °F 26% 30.08 in 10.0 mi NNW 18.4 mph 23.0 mph N/A   Clear
10:55 AM 23.0 °F 9.6 °F -7.6 °F 26% 30.08 in 10.0 mi NNW 16.1 mph 23.0 mph N/A   Clear
11:15 AM 24.8 °F 10.7 °F -9.4 °F 22% 30.08 in 10.0 mi North 19.6 mph 25.3 mph N/A   Clear
11:35 AM 26.6 °F 13.8 °F -7.6 °F 22% 30.06 in 10.0 mi NW 17.3 mph 23.0 mph N/A   Clear
11:55 AM 26.6 °F 15.7 °F -7.6 °F 22% 30.06 in 10.0 mi NNW 12.7 mph - N/A   Clear
12:15 PM 28.4 °F 15.1 °F -11.2 °F 18% 30.05 in 10.0 mi NW 20.7 mph 26.5 mph N/A   Clear
12:35 PM 30.2 °F 18.1 °F -7.6 °F 19% 30.03 in 10.0 mi WNW 18.4 mph 25.3 mph N/A   Clear
12:55 PM 30.2 °F 18.5 °F -7.6 °F 19% 30.02 in 10.0 mi NW 17.3 mph 28.8 mph N/A   Clear
1:15 PM 30.2 °F 19.8 °F -5.8 °F 21% 30.01 in 10.0 mi NNW 13.8 mph 23.0 mph N/A   Clear
1:30 PM 30.2 °F 19.3 °F -5.8 °F 21% 30.00 in 10.0 mi NNW 15.0 mph 25.3 mph N/A   Clear
1:55 PM 32.0 °F 20.1 °F -4.0 °F 21% 29.99 in 10.0 mi NNW 19.6 mph 24.2 mph N/A   Clear
2:15 PM 32.0 °F 23.0 °F -5.8 °F 20% 29.98 in 10.0 mi NNW 11.5 mph 18.4 mph N/A   Clear
2:35 PM 32.0 °F 24.2 °F -7.6 °F 18% 29.98 in 10.0 mi NNW 9.2 mph 19.6 mph N/A   Clear
2:55 PM 32.0 °F 23.0 °F -7.6 °F 18% 29.99 in 10.0 mi NW 11.5 mph 20.7 mph N/A   Clear
3:15 PM 32.0 °F 24.2 °F -7.6 °F 18% 30.00 in 10.0 mi WNW 9.2 mph 19.6 mph N/A   Clear
3:30 PM 32.0 °F 23.0 °F -9.4 °F 17% 30.00 in 10.0 mi WNW 11.5 mph 16.1 mph N/A   Clear
3:55 PM 32.0 °F 24.2 °F -7.6 °F 18% 30.00 in 10.0 mi NW 9.2 mph 23.0 mph N/A   Clear
4:15 PM 32.0 °F 22.1 °F -7.6 °F 18% 30.01 in 10.0 mi WNW 13.8 mph 20.7 mph N/A   Clear
4:35 PM 28.4 °F 22.2 °F -7.6 °F 21% 30.01 in 10.0 mi NNW 5.8 mph - N/A   Clear
4:55 PM 26.6 °F 17.5 °F -5.8 °F 24% 30.01 in 10.0 mi North 9.2 mph - N/A   Clear
5:15 PM 23.0 °F 12.4 °F -4.0 °F 31% 30.01 in 10.0 mi NNW 10.4 mph - N/A   Clear
5:35 PM 23.0 °F 10.6 °F -5.8 °F 28% 30.01 in 10.0 mi NNW 13.8 mph 19.6 mph N/A   Clear
5:55 PM 23.0 °F 8.7 °F -5.8 °F 28% 30.01 in 10.0 mi NNW 18.4 mph 21.9 mph N/A   Clear
6:15 PM 21.2 °F 6.4 °F -5.8 °F 30% 30.02 in 10.0 mi NNW 18.4 mph 26.5 mph N/A   Clear
6:35 PM 21.2 °F 6.4 °F -5.8 °F 30% 30.02 in 10.0 mi NNW 18.4 mph 23.0 mph N/A   Clear
6:55 PM 21.2 °F 6.4 °F -5.8 °F 30% 30.02 in 10.0 mi NNW 18.4 mph 31.1 mph N/A   Clear
7:15 PM 21.2 °F 6.0 °F -5.8 °F 30% 30.01 in 10.0 mi NNW 19.6 mph 25.3 mph N/A   Clear
7:35 PM 21.2 °F 6.0 °F -5.8 °F 30% 30.00 in 10.0 mi North 19.6 mph 28.8 mph N/A   Clear
7:55 PM 21.2 °F 6.4 °F -4.0 °F 33% 30.00 in 10.0 mi NNW 18.4 mph 23.0 mph N/A   Clear
8:15 PM 23.0 °F 9.6 °F -4.0 °F 31% 29.99 in 10.0 mi NNW 16.1 mph 23.0 mph N/A   Clear
8:35 PM 23.0 °F 9.2 °F -4.0 °F 31% 29.99 in 10.0 mi NW 17.3 mph 24.2 mph N/A   Clear
8:55 PM 23.0 °F 9.2 °F -4.0 °F 31% 29.99 in 10.0 mi NNW 17.3 mph 24.2 mph N/A   Clear
9:15 PM 23.0 °F 9.6 °F -2.2 °F 33% 29.99 in 10.0 mi NNW 16.1 mph 21.9 mph N/A   Clear
9:35 PM 23.0 °F 10.6 °F -4.0 °F 31% 30.00 in 10.0 mi NNW 13.8 mph 21.9 mph N/A   Clear
9:55 PM 28.4 °F 16.6 °F -2.2 °F 27% 30.00 in 10.0 mi NNW 16.1 mph 27.6 mph N/A   Clear
10:10 PM 23.0 °F 8.7 °F -4.0 °F 31% 30.01 in 10.0 mi NNW 18.4 mph 28.8 mph N/A   Clear
10:35 PM 23.0 °F 9.6 °F -0.4 °F 36% 30.01 in 10.0 mi NW 16.1 mph 23.0 mph N/A   Clear
10:55 PM 21.2 °F 6.8 °F 1.4 °F 42% 30.01 in 10.0 mi NNW 17.3 mph 27.6 mph N/A   Clear
11:15 PM 21.2 °F 6.0 °F 6.8 °F 54% 30.00 in 10.0 mi NNW 19.6 mph 28.8 mph N/A   Clear
11:35 PM 19.4 °F 3.6 °F 8.6 °F 63% 30.00 in 10.0 mi NNW 19.6 mph 29.9 mph N/A   Clear
11:55 PM 21.2 °F 4.9 °F 10.4 °F 63% 29.99 in 10.0 mi North 23.0 mph 28.8 mph N/A   Scattered Clouds